Content
SEND FEEDBACK

Daily
Averages
Monthly
Summary
Canada

QUEBEC CITY, QUEBEC


Home > North America > Canada > Quebec
Elevation: 72 meters     Latitude: 46 48N     Longitude: 071 23W

WEATHER
 
SELECT A DAY
Number of Records: 197,121;   Date Range: 6/30/96 - 11/25/14
 
SHARE

PRINT THIS DATA

[ ← Previous Day ]
WEATHER ALMANAC - 10 FEBRUARY, 2013
[ Next Day → ]
[ °F ]   °C
Weather ElementAverageHighLow
Temperature-13.1 °C-6.7 °C (4:00 pm)-20 °C (7:00 am)
Dewpoint-20.6 °C-16.7 °C (4:00 pm)-24 °C (1:00 am)
Humidity51.8 %73 % (7:00 am)31 % (4:00 pm)
Barometer1028.4 hPa1030.8 hPa (9:00 am)1026.8 hPa (1:00 am)
Wind Speed12.2 km/h29.6 km/h (12:00 pm)
Wind Gust27.8 km/h (4:00 pm)
Weather ElementAverage
Visibility35.7 km
Wind DirectionSW (223.9 °)

Weather ElementTotal
Precipitation---
Heating Degree Days31.7 (Base 18.3)
Averaged from 31 records on 10 February, 2013
WEATHER CONDITIONS BREAKOUT
WIND DIRECTION BREAKOUT
WEATHER BY HOUR - 10 FEBRUARY, 2013
[ °F ]   °C
Local TimeTemperatureDewpointHumidityBarometerVisibilityWind DirectionWind SpeedGust SpeedPrecipitationEventsConditions
1:00 AM-14.4 °C-20.6 °C46 %1026.8 hPaWest (270°)7.4 km/h
1:00 AM-16 °C-24 °C51 %1026.8 hPa24.1 kmWNW (290°)7.4 km/hClear
2:00 AM-17 °C-24 °C56 %1026.8 hPa24.1 kmWSW (250°)5.6 km/hClear
3:00 AM-18 °C-24 °C60 %1026.8 hPa24.1 kmSouth (170°)7.4 km/hClear
4:00 AM-18.3 °C-21.7 °C62 %1026.8 hPaWSW (250°)7.4 km/h
4:00 AM-16 °C-23 °C56 %1026.8 hPa24.1 kmSW (220°)11.1 km/hClear
5:00 AM-17 °C-23 °C61 %1027.8 hPa24.1 kmSW (230°)11.1 km/hClear
6:00 AM-18 °C-24 °C60 %1028.8 hPa24.1 kmSW (230°)9.3 km/hPartly Cloudy
7:00 AM-20 °C-22.2 °C73 %1029.5 hPaWSW (240°)5.6 km/h
7:00 AM-18 °C-23 °C66 %1029.5 hPa48.3 kmSW (220°)13 km/hPartly Cloudy
8:00 AM-18 °C-23 °C66 %1030.5 hPa48.3 kmSW (230°)11.1 km/hPartly Cloudy
9:00 AM-16 °C-22 °C61 %1030.8 hPa48.3 kmSW (230°)13 km/hPartly Cloudy
10:00 AM-14.4 °C-20 °C50 %1030.8 hPaSW (230°)7.4 km/h
10:00 AM-14 °C-21 °C56 %1030.8 hPa48.3 kmSW (230°)18.5 km/hPartly Cloudy
11:00 AM-13 °C-20 °C57 %1030.8 hPa48.3 kmSW (220°)22.2 km/hPartly Cloudy
12:00 PM-11 °C-20 °C48 %1029.8 hPa48.3 kmSW (220°)29.6 km/hPartly Cloudy
1:00 PM-9.4 °C-17.2 °C38 %1029.1 hPaSW (220°)13 km/h
1:00 PM-9 °C-19 °C45 %1029.5 hPa48.3 kmSW (220°)24.1 km/hPartly Cloudy
2:00 PM-8 °C-18 °C45 %1028.4 hPa48.3 kmSW (220°)24.1 km/hPartly Cloudy
3:00 PM-7 °C-18 °C42 %1027.8 hPa48.3 kmSW (220°)25.9 km/hPartly Cloudy
4:00 PM-6.7 °C-16.7 °C31 %1027.8 hPaSW (220°)11.1 km/h
4:00 PM-7 °C-19 °C39 %1027.8 hPa48.3 kmSSW (210°)18.5 km/h27.8 km/hPartly Cloudy
5:00 PM-8 °C-20 °C38 %1028.4 hPa48.3 kmWSW (250°)20.4 km/hPartly Cloudy
6:00 PM-9 °C-20 °C41 %1028.8 hPa24.1 kmWSW (240°)14.8 km/hClear
7:00 PM-8.9 °C-17.8 °C33 %1028.4 hPaWest (260°)14.8 km/h
7:00 PM-10 °C-19 °C49 %1028.4 hPa24.1 kmWest (270°)13 km/hClear
8:00 PM-10 °C-19 °C49 %1028.8 hPa24.1 kmCalmClear
9:00 PM-12 °C-20 °C52 %1027.8 hPa24.1 kmWSW (240°)3.7 km/hClear
10:00 PM-15.6 °C-18.9 °C63 %1027.1 hPaWest (280°)5.6 km/h
10:00 PM-13 °C-20 °C57 %1027.4 hPa24.1 kmCalmClear
11:00 PM-14 °C-21 °C56 %1027.1 hPa24.1 kmNorth (360°)3.7 km/hClear
Hourly data recorded from CYQB, located 0 kilometers away from Quebec City, Quebec







STORIES FROM OUR PARTNERS